This is the latest recevied weather packets stored in our database for station/object EA7AIS-10. If no packets are shown the sender has not sent any weather packets the latest 10 day(s).
| Time | Temp. | Humidity | Pressure | Rain* | Wind** | Luminosity | Snow |
|---|---|---|---|---|---|---|---|
| 1777479355 | 22.22° C | 62% | 1008.6 hPa | - | - | - | - |
| 1777478455 | 22.22° C | 63% | 1008.9 hPa | - | - | - | - |
| 1777477555 | 21.67° C | 64% | 1008.9 hPa | - | - | - | - |
| 1777476655 | 21.67° C | 64% | 1008.9 hPa | - | - | - | - |
| 1777475755 | 21.67° C | 64% | 1008.9 hPa | - | - | - | - |
| 1777474855 | 21.67° C | 64% | 1009 hPa | - | - | - | - |
| 1777473955 | 21.67° C | 63% | 1009 hPa | - | - | - | - |
| 1777473054 | 21.67° C | 63% | 1009.1 hPa | - | - | - | - |
| 1777472154 | 21.67° C | 64% | 1009 hPa | - | - | - | - |
| 1777471255 | 21.11° C | 65% | 1009 hPa | - | - | - | - |
| 1777470354 | 21.11° C | 63% | 1009 hPa | - | - | - | - |
| 1777469454 | 21.11° C | 63% | 1009.2 hPa | - | - | - | - |
| 1777468554 | 21.67° C | 61% | 1009 hPa | - | - | - | - |
| 1777467655 | 21.67° C | 61% | 1008.9 hPa | - | - | - | - |
| 1777466754 | 22.78° C | 59% | 1008.9 hPa | - | - | - | - |
| 1777465854 | 23.89° C | 59% | 1008.8 hPa | - | - | - | - |
| 1777464954 | 23.33° C | 59% | 1008.8 hPa | - | - | - | - |
| 1777464054 | 23.89° C | 57% | 1008.9 hPa | - | - | - | - |
| 1777463154 | 24.44° C | 59% | 1008.9 hPa | - | - | - | - |
| 1777462253 | 23.89° C | 57% | 1008.9 hPa | - | - | - | - |
| 1777461353 | 23.33° C | 60% | 1008.9 hPa | - | - | - | - |
| 1777460454 | 23.89° C | 59% | 1008.9 hPa | - | - | - | - |
| 1777459556 | 23.89° C | 60% | 1009 hPa | - | - | - | - |
| 1777458651 | 23.33° C | 61% | 1009 hPa | - | - | - | - |
| 1777457751 | 22.78° C | 66% | 1009.1 hPa | - | - | - | - |
* Rain since midnight (hover to see other rain measurements)
** Current wind speed in m/s (hover to see current wind gust speed)